RH
71 71 72 74 73 74 77 79 81 83 81 77 75 77 80 82 81 77 77 80 78 76 72 67 63 61 57 49 42 37 24 10 8 9 7 9 13 15 16 16 16 16 15 15 20 28 32 34 40 46 48 46 42 37 31 27 25 24 24 24 24 24 24 26 27 28 28 29 30 32 33 33 33 32
71 71 73 75 74 74 75 77 80 81 80 79 77 80 83 85 82 77 76 79 78 77 74 68 66 64 61 55 48 41 27 11 7 8 7 9 13 15 17 17 17 17 15 18 25 32 34 38 44 47 47 45 41 36 31 26 23 24 24 26 27 29 30 32 33 34 33 33 32 31 30 30 30 31
72 73 75 75 74 76 76 77 80 80 80 81 80 81 84 87 85 76 75 81 81 77 73 69 67 63 58 55 52 48 34 13 6 7 6 9 13 16 19 19 19 17 17 23 31 35 37 41 46 48 48 47 45 41 37 31 27 26 27 30 33 35 35 35 34 34 33 31 30 29 29 30 33 36
74 73 74 74 76 79 78 77 78 78 80 81 79 80 83 87 85 76 76 83 84 78 72 70 69 61 50 44 46 51 40 16 5 6 6 9 15 18 20 20 19 17 19 27 34 36 38 42 45 47 48 47 46 46 44 40 35 31 30 31 33 34 33 33 33 33 34 34 34 36 38 39 41 42
71 70 72 74 77 79 78 76 76 76 78 79 77 76 78 82 83 78 78 85 87 82 77 75 72 60 45 34 33 40 33 14 4 6 6 8 14 19 21 21 19 17 20 28 35 37 39 42 44 46 46 46 46 47 48 48 44 40 37 36 36 37 38 40 42 44 45 46 47 46 46 45 44 43
66 67 70 72 72 72 71 71 72 74 74 74 74 72 72 77 82 81 80 84 89 89 84 79 74 65 51 35 25 23 18 9 5 5 6 9 14 19 21 20 19 17 20 29 36 39 41 42 43 44 44 46 47 48 51 53 52 51 50 50 51 53 54 55 55 53 51 49 48 46 45 44 44 43
66 66 68 68 67 69 70 69 69 71 71 70 70 70 70 73 78 81 81 82 87 91 90 83 78 72 60 42 29 20 12 7 6 6 8 11 15 20 21 22 20 19 23 32 38 40 42 43 43 43 44 47 50 51 53 56 59 62 65 66 65 62 59 56 53 50 48 46 46 46 45 44 43 43
66 64 66 69 68 69 71 71 70 70 69 68 67 68 70 71 74 80 83 83 84 89 90 86 80 75 65 53 44 33 23 16 11 8 9 13 17 20 22 21 20 22 30 37 40 43 43 43 43 43 44 50 55 57 59 62 66 69 68 65 60 57 55 53 51 49 49 49 50 49 48 46 46 46
66 65 68 71 71 69 69 70 70 68 68 67 65 65 68 71 75 78 80 82 84 86 87 85 82 78 71 63 54 46 43 39 30 20 13 14 19 22 22 24 27 33 39 43 44 43 43 44 47 49 50 54 60 64 65 66 65 63 60 58 56 57 59 58 56 55 56 58 57 54 53 53 52 51
70 72 73 73 71 70 68 68 70 68 67 66 64 64 67 70 72 74 77 82 84 86 88 85 82 79 75 69 63 60 54 46 39 33 23 18 20 22 24 29 37 43 46 47 46 45 48 53 57 59 61 62 65 69 68 64 62 60 60 61 63 66 67 65 63 64 66 65 60 56 55 57 58 58
70 72 70 66 67 70 70 71 72 69 65 64 62 62 63 65 66 67 73 80 83 85 86 84 84 83 77 68 66 69 61 43 34 36 31 23 21 24 30 39 47 50 50 48 47 48 55 61 64 67 68 67 69 72 70 67 65 65 66 68 70 71 70 68 68 69 68 63 60 59 58 59 63 62
65 65 59 58 63 69 72 72 70 65 61 60 58 56 56 60 61 61 67 73 80 87 86 83 86 87 79 67 61 65 59 41 35 42 43 36 31 32 38 47 53 53 51 49 50 53 59 63 66 69 69 68 70 72 71 70 69 70 72 73 73 72 69 68 68 67 64 62 65 69 69 69 70 67
63 64 61 61 65 69 71 69 66 62 61 62 62 60 59 58 59 63 67 68 76 88 89 87 88 85 79 72 68 66 56 42 44 54 54 47 45 45 46 51 58 60 58 57 56 57 62 65 66 67 66 66 69 71 71 71 71 72 72 71 69 69 69 69 68 66 65 68 77 85 84 78 74 70
63 65 65 64 66 68 68 65 62 62 62 65 69 71 71 68 65 68 70 69 76 86 88 88 87 81 77 78 81 77 61 46 50 56 54 52 55 59 58 60 67 72 71 68 63 61 66 70 68 65 63 65 70 71 69 69 69 68 68 69 70 71 72 71 70 70 71 75 83 90 89 83 76 73
62 64 65 65 64 66 67 66 65 65 65 65 67 70 73 73 72 73 74 75 79 82 83 85 84 79 80 84 87 82 65 50 52 59 63 63 64 64 61 60 66 75 79 76 67 62 66 70 71 69 67 70 73 72 70 69 69 67 68 69 69 69 68 67 68 70 72 73 79 86 88 84 80 77
57 62 66 65 64 66 70 70 69 69 69 67 64 64 66 68 71 75 77 79 81 82 84 87 83 80 84 89 92 88 73 59 57 62 65 65 65 65 64 62 65 70 76 76 72 68 69 71 71 69 69 74 77 75 73 73 71 70 68 67 66 66 66 66 66 66 66 67 71 77 79 79 80 80
49 55 62 66 68 70 73 73 70 67 66 65 62 62 64 68 72 76 77 77 79 79 81 85 86 86 88 91 94 91 79 66 61 62 63 64 64 66 67 70 72 71 70 72 73 72 70 70 71 70 71 75 79 80 78 76 74 74 74 74 73 72 71 69 66 64 63 65 68 74 77 81 84 85
41 49 57 64 71 76 76 73 69 65 64 64 63 63 67 72 76 76 76 77 76 76 81 85 88 91 92 90 91 90 84 76 71 69 70 70 70 70 69 69 69 66 65 66 67 68 70 74 78 80 80 82 85 86 83 79 76 76 77 77 75 72 70 67 65 65 67 70 74 78 80 81 81 82
38 44 53 60 69 78 81 79 75 71 68 65 62 63 65 69 71 70 75 81 79 77 83 87 86 91 96 95 94 94 90 86 82 80 81 80 76 73 70 67 65 65 70 77 79 78 80 85 85 83 82 82 79 73 66 60 59 61 64 66 66 64 63 62 63 65 69 74 77 80 82 82 84 87
43 45 49 53 60 71 80 81 79 78 75 71 66 62 58 58 60 62 72 86 85 78 80 88 92 96 97 95 95 95 92 90 88 83 79 78 77 77 80 82 81 79 80 83 82 77 75 74 68 61 56 53 49 47 47 48 50 54 58 60 61 61 63 65 68 71 74 77 80 81 80 77 77 78
53 52 51 49 51 60 71 77 80 81 80 76 70 64 58 54 51 50 62 85 96 88 82 87 92 93 92 92 93 91 90 89 84 76 74 77 81 84 87 87 85 82 79 76 71 67 64 60 52 46 45 46 48 51 55 58 61 64 66 67 67 67 67 66 63 58 56 54 53 50 44 40 45 50
61 60 59 56 50 50 55 61 70 78 83 82 76 70 63 56 49 43 45 65 89 96 92 90 90 88 88 91 92 91 92 91 85 82 84 84 82 80 81 82 82 80 75 68 62 59 57 55 53 51 52 56 57 58 61 63 65 65 60 56 52 46 41 35 28 23 21 19 17 16 13 14 24 28
64 64 65 65 59 53 52 55 59 63 70 75 76 72 64 55 51 46 41 48 67 86 95 98 97 93 92 96 97 95 96 97 92 91 92 88 84 83 83 83 81 76 69 61 57 56 55 55 57 56 56 56 56 56 55 51 45 37 28 22 18 14 12 10 8 8 8 8 8 9 8 9 12 13
67 66 66 68 64 59 60 64 64 61 61 60 58 57 54 52 54 56 54 53 60 74 88 95 98 96 93 92 91 87 87 89 90 89 88 85 83 81 76 71 66 63 61 58 57 58 59 59 60 57 53 49 44 38 31 22 15 11 8 7 7 6 7 7 7 7 7 8 9 9 9 10 10 16
72 71 70 70 68 66 64 63 60 58 57 50 40 34 37 47 56 62 65 67 67 70 77 82 84 83 79 77 75 72 70 70 70 70 69 67 66 63 61 59 58 60 63 64 63 62 57 51 45 37 29 23 18 13 10 7 6 6 5 5 6 5 6 7 7 8 8 9 11 12 12 14 16 23
78 78 76 73 73 74 72 66 59 57 55 46 33 27 36 54 65 68 70 74 74 71 70 71 71 69 66 62 58 57 57 58 59 59 58 57 59 61 62 64 66 67 63 57 49 42 32 23 17 12 9 8 6 5 5 4 4 5 4 5 5 5 6 7 7 8 9 10 12 14 15 16 17 21
86 85 83 80 79 80 78 77 78 78 73 63 50 45 55 72 83 85 85 86 88 86 81 76 69 62 55 52 54 58 61 61 60 60 61 65 71 74 73 70 64 52 39 27 20 15 11 8 7 6 5 5 4 4 4 3 4 4 4 5 5 5 6 7 8 10 11 12 14 15 17 18 20 26
92 91 90 89 88 89 90 92 95 96 95 90 83 78 78 80 83 84 86 89 92 87 75 65 62 60 59 61 65 67 66 66 69 75 79 79 75 65 55 44 33 22 14 10 8 7 6 5 4 4 4 3 3 4 3 3 4 4 4 5 6 7 9 11 12 14 15 17 18 19 22 23 23 35
97 97 95 93 91 92 96 99 100 100 99 99 99 98 90 77 68 69 76 84 82 73 65 66 72 73 70 70 71 72 75 80 83 78 68 54 40 28 20 15 11 9 7 6 5 4 4 4 3 3 4 3 3 4 3 4 5 7 8 8 9 12 14 15 17 19 20 22 25 27 31 31 27 36
100 99 99 98 97 97 99 100 100 100 100 99 100 99 95 87 81 83 89 92 88 81 78 80 81 79 79 81 83 85 82 73 58 40 26 18 13 10 9 8 6 5 4 4 4 3 3 4 3 3 4 4 5 6 8 9 10 11 13 15 14 16 18 19 21 24 27 31 36 39 41 41 39 44
99 100 99 99 99 99 99 100 100 100 99 100 100 99 97 97 98 98 99 98 96 93 88 84 83 85 86 80 70 59 46 32 21 14 11 9 8 7 6 5 4 4 3 3 3 3 3 4 4 5 6 8 10 11 13 14 15 15 17 19 19 20 21 22 26 31 36 40 42 46 52 54 55 63
99 100 100 99 100 100 100 100 100 100 99 100 100 99 99 100 101 100 100 99 96 92 86 80 76 70 58 44 32 23 17 14 12 10 8 7 6 5 4 4 3 3 3 3 3 4 4 5 6 8 10 11 13 14 16 18 19 19 21 22 24 25 25 26 29 33 39 46 50 59 71 75 73 74
100 100 100 99 100 100 100 100 100 100 100 100 100 99 99 99 98 96 94 89 83 76 67 56 46 36 29 24 19 16 14 12 9 7 6 5 4 3 3 3 3 3 4 4 5 5 6 7 9 11 12 13 14 15 16 18 21 24 25 25 27 28 28 29 30 33 46 68 82 87 91 93 90 88
100 100 100 100 100 100 99 99 99 98 97 97 96 95 93 90 87 82 77 72 66 58 49 40 33 28 24 21 18 14 11 8 6 5 4 3 3 4 4 4 4 4 5 5 6 7 8 9 11 13 14 15 15 16 17 20 25 28 30 30 31 31 31 32 34 39 57 84 100 101 97 95 96 98
100 100 100 98 97 95 94 93 92 90 89 86 84 80 75 69 64 58 54 49 45 39 34 30 27 22 17 14 11 9 6 5 4 4 4 4 4 4 4 4 5 6 6 6 6 6 6 8 10 14 16 17 19 20 21 25 31 35 37 37 37 36 37 40 46 54 65 77 85 87 87 88 93 97
97 95 93 89 86 85 83 82 79 77 74 70 65 60 54 47 41 35 30 27 24 22 20 18 15 12 10 8 6 5 4 4 5 4 4 4 4 4 5 6 7 7 6 6 6 6 7 9 10 13 16 18 24 30 33 34 38 42 43 44 44 45 45 47 54 65 72 75 76 77 79 84 90 91
88 85 82 80 77 74 69 65 61 55 50 46 41 37 33 28 25 22 19 17 15 13 12 10 8 7 6 5 5 6 5 5 4 4 5 5 5 6 6 6 6 7 7 7 8 8 9 10 11 14 17 21 28 36 41 42 43 46 48 49 50 52 54 55 61 71 80 85 89 91 92 95 95 91
79 77 74 71 67 63 57 51 45 39 33 29 25 22 20 18 17 15 13 12 11 9 8 7 7 7 7 6 6 5 5 5 5 6 6 6 6 6 7 7 9 9 9 9 9 9 10 12 15 17 21 24 30 38 45 49 51 52 53 53 54 58 63 68 73 78 83 88 94 95 93 93 92 90
68 66 63 59 55 50 45 40 35 30 26 23 20 18 17 15 14 12 11 10 9 8 8 8 8 7 7 6 5 5 6 6 6 6 6 7 7 8 10 10 11 11 11 12 12 14 16 19 22 24 27 31 36 41 48 53 56 57 59 62 63 66 71 75 78 80 82 84 86 86 85 86 88 89
53 52 49 46 43 39 35 31 27 24 22 20 18 17 15 13 12 11 10 10 10 10 9 9 8 8 7 7 7 7 7 7 7 7 8 9 10 12 13 13 13 13 13 13 14 17 20 23 28 32 35 39 43 47 51 55 57 59 63 67 70 73 78 82 83 83 83 83 82 84 88 92 94 94
41 39 36 34 31 29 27 24 23 21 19 17 15 14 13 12 12 12 12 11 11 10 10 9 9 9 9 9 8 8 8 8 9 10 12 14 15 16 16 15 15 14 14 14 17 21 25 30 35 41 45 48 50 53 56 59 61 63 67 72 77 81 84 85 84 83 83 85 86 88 94 98 99 98
33 30 28 27 25 24 23 22 20 19 17 15 13 12 12 12 12 12 12 12 11 10 10 10 10 10 10 9 9 9 10 11 13 15 18 19 19 18 17 17 17 19 20 21 25 30 36 41 46 50 54 57 57 58 61 64 66 69 73 76 80 82 82 83 85 86 86 88 92 96 98 100 99 99
28 26 26 25 25 24 23 21 19 16 14 13 13 13 13 13 13 14 14 13 13 12 12 12 12 12 11 11 12 14 15 17 19 21 22 21 21 21 21 21 23 26 28 29 33 40 47 52 56 59 62 63 63 64 66 69 72 75 76 75 77 79 80 84 89 91 90 92 97 100 99 97 96 98
28 28 28 27 26 24 22 19 17 15 15 15 15 15 15 15 16 17 16 15 14 14 13 13 13 14 15 17 19 21 23 24 24 23 23 23 24 25 26 27 29 33 37 40 44 49 56 61 64 66 67 66 66 67 70 73 77 79 77 76 79 82 84 87 92 93 94 97 99 100 100 96 92 95
31 30 30 28 25 22 20 18 18 17 18 18 18 18 19 19 18 18 18 18 17 17 16 16 17 20 23 25 27 27 28 27 26 26 27 28 29 31 33 35 37 41 46 50 54 58 64 66 66 66 65 65 66 69 74 78 80 79 79 82 85 86 88 93 94 93 95 100 100 99 100 95 88 90
Wind_Speed
22 20 18 18 17 17 17 16 16 15 15 14 12 11 10 10 9 9 9 10 11 11 10 9 9 9 9 9 8 9 9 8 9 9 9 10 11 12 11 9 8 6 6 5 3 3 3 2 1 2 2 3 3 4 4 5 5 5 4 4 4 4 5 5 6 6 7 8 8 9 10 11 12 13
21 21 20 19 18 18 18 17 17 17 16 15 13 12 12 11 10 10 11 12 11 11 11 9 9 10 10 10 10 10 10 10 9 9 9 10 11 12 11 9 8 7 7 6 5 4 4 3 3 4 4 4 4 4 4 4 4 4 4 4 4 4 5 6 6 7 7 8 9 11 12 13 14 16
21 21 21 20 19 18 18 18 18 17 16 15 15 14 13 12 11 11 12 12 12 12 11 10 10 10 10 10 11 11 11 11 10 10 10 11 11 12 11 10 9 9 8 7 7 6 6 5 5 5 5 5 5 5 4 4 4 4 5 5 5 6 7 8 8 9 10 11 12 14 15 16 17 18
20 21 21 21 20 20 19 19 19 18 17 16 16 16 15 14 14 13 13 13 13 12 11 10 10 10 10 9 10 12 12 12 11 11 10 11 12 13 12 12 11 10 9 8 8 8 7 7 6 6 7 7 7 7 6 6 6 6 6 7 7 8 9 10 11 12 13 14 15 16 17 17 18 19
21 20 21 21 21 21 20 20 19 19 19 18 18 17 16 16 16 14 13 14 14 12 11 11 11 11 10 9 9 10 12 12 11 11 11 12 13 14 14 13 12 11 10 9 9 9 8 8 8 8 9 9 9 9 9 8 7 7 7 8 9 10 11 13 14 16 16 17 18 18 19 19 20 20
21 21 21 22 21 21 21 21 21 20 20 20 19 18 17 16 16 15 14 15 14 13 12 12 11 11 10 9 9 9 11 12 12 12 11 12 13 14 14 13 13 12 11 10 9 9 9 9 10 10 11 11 11 11 10 9 8 8 8 9 10 11 13 15 17 19 20 20 21 21 22 22 23 23
21 21 21 21 20 21 21 20 21 21 20 20 20 19 18 17 17 17 16 16 16 14 13 13 12 11 10 9 9 9 10 12 12 12 12 13 14 14 14 14 13 13 12 11 10 10 11 11 12 12 12 12 11 10 10 9 9 9 9 10 11 13 15 17 19 21 22 23 24 25 26 26 26 26
21 20 20 20 20 21 21 20 20 20 20 20 20 20 19 18 18 17 16 16 17 16 15 14 13 12 12 10 10 9 9 10 11 13 14 14 14 14 15 15 14 13 12 11 11 11 12 12 13 13 13 12 11 10 10 10 10 11 11 12 13 15 17 19 21 23 24 26 27 28 29 30 30 30
21 20 19 20 20 20 20 20 19 19 20 20 20 20 20 19 18 17 16 17 18 18 17 16 15 14 14 12 11 10 9 9 10 12 14 14 15 15 15 14 14 14 13 12 12 12 12 13 13 13 13 13 12 11 11 11 12 13 13 14 15 17 19 21 23 25 26 28 30 31 32 33 34 35
20 20 20 20 20 20 19 19 19 20 21 21 20 20 20 20 19 18 18 18 19 19 18 18 17 16 14 13 12 11 11 10 10 12 14 16 16 16 15 14 14 14 14 13 13 13 13 12 13 13 14 14 14 13 12 13 14 15 15 16 18 19 21 23 25 27 29 31 32 34 35 36 37 39
20 20 21 21 20 20 19 20 21 22 22 22 22 21 21 21 20 19 19 19 20 20 19 19 18 17 15 13 13 13 14 12 9 9 12 15 15 15 14 14 15 15 15 15 14 14 13 13 14 14 15 16 16 15 15 15 16 17 18 19 21 22 24 26 28 30 32 33 35 36 37 38 39 42
20 20 21 21 20 20 21 21 22 23 24 24 23 22 22 22 21 20 20 20 20 21 20 20 19 18 16 14 12 13 16 14 8 6 8 11 13 14 14 14 16 16 16 16 15 15 15 15 16 17 18 18 18 18 18 19 20 21 22 23 24 26 28 30 31 33 34 36 37 38 39 40 42 44
20 20 20 21 21 21 22 23 24 25 25 24 23 23 22 22 21 21 21 21 21 21 21 21 21 20 18 15 12 13 16 14 9 8 10 10 10 13 15 16 16 16 16 16 17 16 17 18 19 20 20 19 20 21 21 23 23 24 26 27 28 30 32 33 35 36 37 39 40 40 41 43 44 47
20 20 20 21 22 22 23 23 24 25 24 22 22 22 21 21 22 22 23 22 21 20 21 22 21 20 18 15 13 14 15 14 13 13 13 12 11 14 16 16 16 17 17 18 18 18 19 22 21 21 21 20 21 23 24 25 27 28 29 30 32 33 35 36 37 38 39 40 41 42 44 45 46 48
20 20 20 21 21 22 22 22 22 22 21 21 21 21 20 20 21 23 23 21 21 21 21 21 21 20 18 16 15 16 17 17 16 15 16 16 16 17 18 18 18 19 20 22 22 21 22 24 24 23 23 23 24 26 27 28 29 30 31 33 34 35 36 38 39 40 41 41 43 44 45 47 48 49
19 19 19 20 20 20 20 20 21 20 20 21 21 20 19 20 21 22 21 20 21 22 22 21 21 21 19 18 18 19 20 20 19 18 19 19 19 20 20 20 20 22 24 25 26 24 24 26 27 26 26 27 28 29 30 31 32 33 34 35 37 38 39 40 42 43 43 44 45 47 48 49 50 50
18 18 19 19 19 19 19 20 20 20 20 21 21 20 21 21 21 22 22 22 22 22 21 21 22 22 21 21 21 22 22 22 21 20 19 19 20 21 22 21 22 24 26 28 29 27 27 29 31 30 29 30 32 32 33 35 36 36 37 39 40 42 43 44 45 46 46 46 47 48 49 50 50 51
18 19 19 20 20 20 20 20 20 21 21 21 21 22 22 22 22 23 23 24 23 21 21 22 23 23 24 23 23 23 23 23 21 20 20 21 21 22 23 24 25 27 28 30 32 32 31 32 33 33 32 34 35 36 37 38 39 40 41 42 44 44 45 46 47 47 48 49 49 50 52 53 54 55
19 19 20 20 21 20 20 20 21 22 22 22 22 22 22 23 23 23 23 24 24 23 22 23 24 25 26 26 25 25 25 24 23 23 23 23 24 25 26 27 28 29 30 31 34 35 34 34 36 37 36 38 39 39 40 41 42 43 43 44 45 46 47 48 49 50 51 51 52 54 55 55 56 56
18 19 20 21 21 21 22 22 23 23 23 23 23 23 23 23 22 22 21 21 22 23 23 24 25 26 27 27 27 27 27 26 25 25 26 26 27 28 28 29 30 32 33 35 38 40 40 39 41 41 40 41 42 41 41 42 43 44 45 46 47 48 50 51 52 52 53 53 54 55 55 55 54 54
17 17 18 19 19 21 22 23 24 24 24 24 24 23 24 23 23 23 22 19 19 22 23 25 27 28 28 29 30 30 30 29 28 27 27 28 29 30 30 32 33 35 38 39 41 43 43 42 43 42 41 42 42 41 42 43 44 46 47 49 50 51 51 52 52 52 52 52 52 52 52 51 50 49
17 17 17 17 18 19 21 22 23 25 25 25 25 25 25 25 25 25 24 22 20 21 23 25 27 29 30 30 31 32 30 30 29 28 27 28 31 33 34 36 37 38 40 41 41 42 43 42 42 43 43 44 44 44 45 46 47 48 48 49 49 50 50 50 50 50 49 49 49 49 48 47 45 45
19 18 18 19 19 20 21 21 22 24 26 27 27 27 26 26 26 25 25 25 24 24 25 25 26 27 28 27 28 29 28 27 28 29 30 32 35 36 38 39 39 39 40 40 40 41 42 42 43 45 46 47 48 47 47 47 47 47 47 47 47 47 47 47 47 47 47 47 47 47 46 45 44 42
21 21 21 22 22 22 22 22 22 23 24 26 27 27 27 27 26 25 25 25 25 26 26 26 27 28 28 27 27 28 29 29 31 32 34 35 36 37 38 38 38 39 39 40 41 42 43 43 44 45 46 48 48 48 47 46 46 46 46 45 45 45 45 46 46 46 46 45 45 44 43 42 41 39
23 23 23 24 25 24 24 25 25 24 24 25 26 26 26 26 26 26 25 25 26 26 26 27 27 28 29 29 29 29 30 31 32 33 34 34 35 35 36 37 37 38 39 40 41 42 42 42 42 43 44 44 45 46 45 45 45 45 45 45 45 44 44 44 44 43 43 42 42 41 40 39 38 36
26 26 26 27 27 27 27 26 26 25 25 26 26 26 25 24 24 25 25 25 26 27 28 28 29 29 29 29 29 29 29 30 31 32 33 33 34 35 36 37 38 37 38 38 39 40 40 40 41 41 41 41 42 42 42 43 43 43 43 43 43 43 43 42 42 41 41 40 39 38 37 36 35 34
29 29 29 29 28 28 28 27 26 27 27 26 26 25 24 23 23 23 24 25 25 26 28 28 29 29 29 29 28 28 29 30 31 32 34 35 36 36 36 36 36 36 36 36 37 37 38 38 38 39 39 39 40 40 41 41 42 42 42 42 42 42 42 41 41 40 40 39 38 37 36 34 32 31
32 32 32 32 31 30 28 26 26 26 26 27 27 27 26 26 25 24 25 26 27 27 28 28 28 28 28 28 29 29 30 32 33 34 35 34 33 33 33 33 34 34 34 34 34 34 35 35 36 37 38 39 40 41 42 42 42 43 43 42 41 41 40 40 39 39 39 38 38 37 35 33 30 27
35 34 35 35 35 31 27 25 26 27 26 27 29 30 29 27 27 27 28 28 29 29 29 28 27 27 28 29 31 31 32 32 32 32 31 30 30 30 31 31 32 32 32 32 32 33 33 34 35 37 38 39 40 41 42 42 41 41 41 41 39 39 39 39 39 39 38 37 37 35 32 30 27 25
37 37 37 36 34 30 27 27 28 30 29 28 30 32 31 29 28 29 30 31 31 29 28 27 26 28 30 31 31 31 29 28 27 27 27 27 28 28 29 30 30 30 31 31 32 33 34 35 36 38 38 39 39 38 38 38 38 38 38 38 38 38 38 39 39 39 39 37 35 32 29 26 25 23
35 34 34 33 31 30 29 28 26 26 26 26 27 29 29 27 26 26 27 28 29 28 28 28 29 29 28 27 26 25 24 24 24 25 25 26 26 26 26 27 28 29 30 32 33 34 35 35 36 37 36 36 35 35 35 35 35 36 36 37 38 37 37 38 38 38 37 34 32 29 26 24 22 22
31 29 27 26 26 26 27 27 26 25 25 25 26 28 28 28 28 27 26 26 26 27 27 27 26 24 22 21 21 22 22 23 23 24 24 24 24 24 25 26 27 29 31 32 33 34 34 33 33 33 33 33 33 33 33 34 35 35 35 36 36 36 36 36 35 35 33 30 28 26 24 22 20 21
27 25 23 23 23 24 25 26 26 25 25 26 27 27 28 28 27 25 23 22 21 20 20 19 18 18 19 20 21 21 22 22 23 23 23 23 24 24 25 27 28 29 29 30 30 30 30 31 31 31 31 31 32 32 33 33 34 34 34 33 33 32 31 30 29 29 27 24 22 22 22 21 19 19
26 25 24 23 22 21 20 19 19 18 18 18 19 20 21 20 19 17 17 16 16 16 16 16 17 18 19 19 20 20 21 21 21 21 22 23 24 25 26 28 28 28 27 27 26 26 27 29 30 31 32 32 32 32 32 32 32 31 31 29 28 27 26 24 23 23 22 21 21 21 20 20 19 16
23 22 21 19 17 14 12 12 12 13 13 13 13 13 13 13 13 13 14 14 15 15 16 16 17 17 18 18 19 19 19 20 20 21 22 23 25 26 27 28 27 26 25 25 25 26 28 29 30 31 32 32 32 31 30 30 29 28 28 27 25 24 23 21 19 18 17 18 21 22 22 21 20 17
16 16 14 12 10 8 8 8 9 9 10 10 10 10 11 11 12 12 13 14 14 15 16 16 16 17 17 17 17 18 18 19 20 22 23 25 26 26 27 26 26 25 24 25 25 27 28 29 30 30 30 30 29 28 27 26 26 25 25 24 24 22 21 20 18 17 16 15 16 18 20 20 18 16
8 7 7 6 5 5 6 7 7 8 9 9 9 10 10 11 12 13 14 15 15 15 15 15 15 15 15 16 16 17 18 19 21 22 24 25 25 26 26 26 26 25 24 24 25 27 28 29 29 28 28 27 26 25 24 24 23 23 23 23 22 21 21 20 20 18 17 15 13 13 15 16 16 15
3 4 4 4 5 6 6 7 7 8 9 9 10 11 12 13 13 14 14 14 14 14 14 14 14 14 15 16 17 18 19 20 21 22 23 24 25 26 26 26 25 24 24 25 27 28 29 29 28 27 27 26 25 24 23 23 22 22 22 22 21 20 20 21 20 19 17 15 13 13 13 13 13 14
6 6 6 6 6 6 6 7 8 9 10 11 11 12 12 12 13 13 12 12 12 12 12 13 13 14 15 16 17 19 20 20 21 22 23 24 25 25 25 24 24 24 25 27 28 28 28 28 28 27 27 26 25 24 22 22 22 22 22 22 21 20 20 20 19 18 16 14 13 13 13 13 13 13
6 6 6 6 7 7 8 9 10 10 11 11 12 12 12 12 11 11 11 11 11 11 12 13 14 15 16 17 18 19 20 21 22 23 23 23 23 23 23 24 24 25 26 27 27 27 27 26 26 26 25 25 24 23 22 22 22 22 22 21 20 20 19 19 18 17 15 12 12 12 11 12 12 13
6 7 7 8 8 9 10 10 11 11 11 11 11 11 11 11 10 10 10 10 11 12 12 13 15 16 16 17 18 20 21 22 22 22 22 22 22 23 23 24 25 26 27 27 27 27 26 25 24 23 22 22 22 22 21 20 20 20 20 19 18 17 16 16 16 15 13 12 11 11 10 10 10 10
8 8 9 9 9 10 10 10 10 10 10 10 10 10 10 10 9 9 10 11 12 13 14 15 15 16 17 18 19 20 21 21 21 21 21 21 22 23 24 24 25 25 26 26 25 24 23 22 21 20 19 19 20 20 19 18 18 17 16 14 13 12 11 11 11 11 10 9 9 8 7 8 9 9
9 9 9 9 9 10 10 10 10 10 10 10 10 10 9 9 9 10 10 12 13 14 14 15 15 16 17 18 19 19 19 19 19 20 20 21 22 23 23 24 24 23 23 23 23 22 20 19 18 17 16 15 16 17 16 15 14 14 13 10 8 8 8 8 9 9 9 8 7 7 8 10 10 9
9 9 9 9 10 10 10 10 10 10 10 9 9 9 9 9 9 10 11 12 13 14 14 15 15 16 17 17 17 17 18 18 19 20 21 21 21 21 22 22 22 21 21 20 20 19 17 15 14 12 12 12 13 13 13 12 11 11 10 8 8 8 8 7 9 10 9 8 7 8 11 14 12 8
9 9 9 9 10 9 9 9 9 9 9 8 8 8 9 9 10 11 12 12 13 13 14 15 15 15 16 16 16 17 17 18 19 19 19 19 19 19 19 20 19 19 18 17 16 15 13 12 11 9 9 9 10 10 9 9 8 8 8 8 9 10 8 8 9 10 8 6 7 9 11 14 12 7
Wind_Direction
228 221 214 218 223 225 226 226 225 224 226 230 234 238 238 234 231 232 233 233 234 239 247 258 262 260 259 258 259 264 264 249 235 232 223 209 204 204 202 202 205 209 220 233 234 211 197 195 212 253 272 282 293 303 309 312 313 313 313 314 318 325 326 328 329 327 326 323 321 324 326 328 329 328
229 225 220 219 223 227 227 227 227 226 227 230 234 236 234 231 228 231 236 237 234 239 249 256 260 263 263 261 259 262 261 249 234 229 226 214 208 207 207 209 212 217 228 235 232 223 221 228 240 255 264 273 284 293 300 303 304 302 299 298 300 303 304 304 305 304 303 302 303 306 311 316 320 322
226 225 224 223 224 227 228 228 228 229 229 230 233 235 233 229 228 231 236 237 236 240 248 254 263 271 271 266 260 259 260 250 234 227 225 218 213 211 211 213 214 217 227 231 229 228 231 237 246 257 267 274 279 283 286 289 288 286 285 286 286 285 285 284 284 286 287 289 294 299 305 311 314 316
226 226 227 227 225 225 227 228 230 231 231 232 234 236 234 229 231 234 235 234 237 243 249 255 267 275 275 271 263 258 256 249 235 227 223 217 214 214 214 216 217 219 225 230 232 236 241 246 252 262 269 275 278 279 280 277 274 275 276 275 277 278 280 282 285 288 291 294 298 302 306 309 310 311
226 228 229 229 227 226 226 227 230 232 232 234 236 237 236 232 233 236 234 233 238 245 248 253 265 271 274 276 269 257 249 243 233 228 225 219 216 218 218 220 223 226 230 234 240 248 253 257 261 267 271 274 276 277 276 271 268 269 271 274 279 283 287 292 295 297 300 302 304 306 308 309 310 310
226 229 230 232 231 230 229 229 230 232 233 236 238 239 238 234 233 233 232 231 234 239 244 250 259 265 269 271 267 253 242 237 233 230 227 223 222 223 224 227 231 235 238 240 244 253 259 264 269 271 272 274 276 277 275 270 268 270 275 282 287 292 297 300 302 302 304 306 308 309 309 310 310 311
227 230 231 234 233 231 231 232 232 233 235 238 240 242 241 236 233 234 235 233 231 232 236 244 253 259 262 262 258 249 239 237 236 233 228 226 227 230 231 234 237 241 243 244 247 253 261 267 271 272 274 275 277 279 277 274 276 281 286 292 297 301 304 305 305 306 308 310 312 311 310 310 311 311
227 229 230 232 233 232 233 235 235 236 238 240 242 245 245 242 238 238 238 236 233 230 228 233 243 251 254 253 252 250 243 241 241 238 234 230 230 234 237 239 242 243 244 245 248 253 261 269 273 275 276 276 276 277 275 276 282 288 293 298 302 305 306 307 307 308 311 312 312 312 312 313 313 313
228 228 229 231 232 233 234 236 238 239 240 242 243 246 246 245 242 240 238 236 234 232 229 228 232 241 247 249 252 253 250 251 249 245 242 238 235 237 239 241 243 243 242 244 248 256 265 271 274 276 277 274 272 271 272 277 283 288 293 297 300 303 303 304 305 307 310 310 311 312 313 314 315 314
229 228 228 229 231 233 234 237 239 241 242 242 242 244 245 245 243 242 239 237 236 233 229 228 229 234 240 242 247 251 253 257 257 252 246 241 238 239 240 242 242 243 243 244 250 258 264 268 272 274 273 271 269 267 270 276 280 284 288 291 294 296 297 299 301 304 307 307 309 310 312 314 314 313
227 227 230 231 231 232 233 236 239 241 241 241 240 240 242 243 242 241 240 239 239 234 229 230 234 236 237 239 243 251 255 256 259 262 255 247 244 244 243 243 242 243 245 247 252 258 260 263 267 268 268 267 266 265 268 273 277 281 284 287 289 291 293 296 299 301 303 305 306 307 309 311 312 311
227 228 232 234 232 231 232 235 237 240 242 242 242 241 241 242 243 242 240 239 240 235 227 228 235 240 243 245 245 251 258 257 258 273 265 252 247 245 243 242 243 245 250 253 255 259 261 263 264 264 264 264 266 267 271 274 278 281 283 286 288 290 292 295 296 298 301 303 304 304 306 308 307 307
230 230 231 231 230 230 232 233 236 239 239 240 243 243 240 242 244 244 242 240 239 235 229 229 236 244 250 253 255 262 265 259 247 248 253 249 246 246 245 247 250 253 256 257 258 261 263 263 262 262 264 266 269 272 274 277 280 283 285 288 290 292 294 295 297 299 301 302 302 301 302 304 304 305
232 232 232 232 231 231 232 235 238 241 240 240 245 247 243 244 245 244 243 241 238 236 234 234 238 245 250 253 262 271 266 251 238 241 250 253 251 250 250 253 258 260 259 258 258 261 263 264 264 267 270 273 275 276 278 280 283 285 287 289 291 293 294 295 297 298 299 300 298 297 298 299 300 302
232 233 233 233 233 233 234 237 242 246 247 246 250 253 250 250 250 248 247 244 240 239 238 237 239 245 248 250 257 265 260 248 241 243 248 252 253 255 255 255 257 260 261 261 260 260 263 268 270 272 275 277 278 280 282 283 285 287 288 289 290 291 292 293 294 294 295 295 295 294 295 296 297 298
231 233 234 234 234 234 236 239 242 246 248 249 252 255 254 253 253 252 250 247 242 238 234 233 239 246 250 251 254 260 258 250 246 246 250 253 257 258 258 257 256 258 260 262 265 265 268 272 274 275 276 278 279 280 283 284 286 287 288 288 289 289 290 291 292 292 293 293 292 293 293 294 295 296
234 235 236 236 236 235 236 239 242 245 247 249 251 253 253 252 253 252 252 248 246 242 236 232 237 242 246 250 253 259 262 258 254 255 257 260 260 260 262 262 263 263 265 269 273 274 275 277 279 280 281 282 282 284 286 287 287 287 287 288 288 288 289 290 290 291 291 291 291 291 292 293 293 294
238 238 239 239 239 238 238 239 242 244 246 248 250 252 252 252 252 253 252 248 244 243 241 240 240 241 245 249 252 258 264 264 263 264 264 264 264 264 266 267 268 269 272 275 278 279 280 282 284 286 286 284 285 286 288 289 288 288 288 288 288 288 289 289 290 291 291 291 292 292 292 292 293 293
238 239 240 241 240 240 240 241 242 244 245 247 249 252 252 252 252 255 256 249 241 239 242 245 245 244 246 248 251 256 261 264 265 266 267 268 270 270 271 271 272 272 274 280 283 283 284 285 285 286 286 285 285 287 289 289 288 288 289 289 289 290 290 291 291 291 291 291 290 290 290 290 290 291
235 237 240 242 242 241 241 242 244 246 247 248 249 250 251 252 253 256 258 252 242 238 242 247 247 246 247 250 253 256 259 261 264 267 271 273 273 273 273 275 276 278 280 284 285 285 287 287 286 286 286 285 286 288 289 289 289 290 290 290 290 290 290 290 289 289 289 288 288 288 288 289 289 289
231 234 238 242 243 242 242 242 244 246 248 249 248 248 250 251 252 253 255 252 242 237 240 245 246 246 248 251 254 256 257 260 263 265 268 271 272 273 275 277 280 283 285 285 286 287 289 290 289 289 290 289 290 291 291 291 291 291 290 290 289 289 288 288 288 288 288 288 288 288 288 289 289 289
232 233 236 240 243 244 244 244 244 244 245 247 248 249 250 251 251 251 250 249 245 241 243 246 247 248 248 249 251 253 255 257 260 261 265 270 273 276 279 281 282 284 284 285 286 288 290 291 292 293 293 293 293 292 292 291 291 290 289 288 288 288 288 289 289 289 289 289 289 290 290 290 289 289
235 237 239 241 242 243 244 245 245 244 244 245 247 249 251 252 252 250 248 248 246 244 245 247 249 250 252 254 254 257 260 262 264 267 270 273 275 277 279 281 282 283 283 284 286 287 288 290 291 292 292 292 292 291 291 291 291 291 290 290 290 291 291 291 290 290 290 290 290 290 290 290 290 291
237 239 241 242 243 244 244 245 246 246 246 247 247 249 250 251 251 251 250 250 250 248 249 251 252 253 257 261 262 263 266 268 268 270 271 273 275 276 277 279 281 282 283 284 285 286 288 289 290 290 291 292 293 294 294 295 294 294 293 294 294 294 293 293 293 292 292 291 291 291 290 291 291 291
241 242 242 243 245 246 246 247 248 249 249 249 248 249 250 250 250 250 251 251 253 254 254 255 257 258 259 262 263 264 265 267 268 270 271 273 274 276 277 279 281 283 285 286 288 289 290 290 291 291 292 293 294 295 296 296 296 296 297 297 297 297 297 297 297 296 296 296 295 294 294 294 293 291
245 246 246 247 248 249 250 250 251 252 252 252 252 250 250 249 249 249 251 252 254 255 256 257 259 261 262 263 265 266 267 268 269 270 271 273 275 277 280 282 285 287 289 290 291 291 292 292 292 293 293 294 294 295 295 296 297 298 298 299 299 300 300 300 299 299 299 298 297 296 296 295 293 292
245 247 248 249 250 250 249 249 252 253 253 253 250 247 244 244 245 247 248 251 253 255 256 257 259 261 263 265 266 266 267 269 270 272 274 276 279 281 284 287 289 291 291 291 291 291 292 293 295 296 296 297 297 297 298 299 299 300 300 301 301 301 300 299 299 299 299 299 298 297 296 295 294 293
246 248 248 247 248 249 250 252 254 252 249 245 242 239 236 237 240 244 246 249 251 253 255 256 257 258 259 262 265 267 270 273 275 277 279 281 285 287 289 291 291 291 291 291 292 294 295 296 297 298 299 300 300 301 301 302 302 302 302 302 302 301 301 300 299 299 299 298 297 296 296 295 295 292
245 247 246 246 246 246 247 247 244 238 235 236 237 236 236 237 240 243 247 249 250 252 252 253 254 257 260 264 268 270 272 275 278 282 285 288 291 291 290 290 290 290 292 294 296 297 298 299 300 300 301 302 302 302 303 303 303 304 304 304 304 303 303 302 301 301 300 298 297 296 296 295 294 289
241 242 243 243 242 240 238 240 242 240 240 242 241 239 239 241 241 241 243 245 245 246 249 253 259 264 266 267 269 271 274 279 284 287 288 288 289 289 290 291 293 295 297 298 299 300 300 301 302 302 303 303 303 304 304 305 305 306 305 305 304 304 303 302 301 300 299 297 297 296 295 294 291 284
236 237 238 238 238 235 233 235 239 242 242 245 247 245 243 242 242 242 245 247 248 250 255 261 265 266 267 269 274 278 282 285 285 284 284 285 287 289 291 293 294 296 297 298 299 300 302 303 303 304 305 305 306 306 306 306 306 305 304 303 303 303 302 301 300 299 297 296 294 293 292 291 287 279
230 230 229 228 229 231 232 232 234 236 237 241 248 249 247 249 254 258 260 261 261 261 262 264 266 268 272 277 281 283 283 283 283 285 286 288 289 289 290 291 293 295 297 298 300 301 303 304 305 305 306 306 306 306 306 305 304 303 303 303 303 302 302 301 300 299 297 296 293 291 290 289 284 276
226 224 222 222 227 233 237 238 240 243 244 245 249 250 250 252 256 259 259 260 261 261 263 266 269 273 276 278 279 281 282 284 286 286 286 287 288 289 292 293 295 296 297 299 300 302 304 305 305 305 305 304 304 304 304 303 304 303 303 302 301 301 302 302 302 300 296 294 293 291 287 285 284 280
223 223 223 224 227 230 231 232 236 240 241 241 243 245 246 248 251 254 258 262 266 270 273 274 275 276 277 278 280 281 282 282 282 283 285 288 291 293 295 296 297 298 298 299 302 304 305 305 304 303 301 300 300 300 302 304 305 305 304 303 303 305 307 308 308 304 295 287 286 290 290 286 282 281
219 220 220 221 222 222 223 226 231 236 239 242 246 250 256 263 269 274 277 278 279 279 278 276 276 276 276 277 277 277 278 279 282 285 288 291 294 296 297 298 298 298 299 302 305 307 308 306 304 301 299 299 300 301 303 306 307 307 308 309 309 310 312 313 314 312 302 287 280 285 292 291 286 281
213 214 216 218 222 229 238 245 251 258 263 269 274 278 281 282 281 280 278 276 275 275 273 273 273 272 272 272 273 275 279 283 287 290 293 296 297 298 298 297 297 297 299 303 306 307 307 305 302 299 298 299 302 304 305 307 308 308 310 311 310 310 311 312 313 317 319 310 293 284 285 288 290 290
218 222 228 240 253 267 278 284 287 287 286 284 281 277 273 269 267 267 267 268 268 269 268 268 268 268 270 273 276 281 285 289 292 295 296 297 298 298 298 298 298 298 300 302 305 306 307 305 304 303 302 303 305 306 307 307 308 308 309 310 310 309 309 310 312 317 322 324 316 300 288 284 286 289
272 274 280 287 288 289 289 285 279 273 268 264 262 262 261 262 263 264 264 265 265 264 264 265 267 270 274 278 282 287 290 292 294 296 297 298 299 300 300 300 299 298 300 303 305 307 309 309 309 309 309 309 309 308 308 309 309 309 309 310 310 308 306 306 309 312 313 311 307 301 294 289 287 289
313 309 304 298 292 285 277 269 262 260 259 260 261 262 263 263 263 263 263 262 262 263 265 268 271 276 280 284 288 291 293 295 297 299 300 301 301 301 300 298 297 298 301 304 307 309 311 312 313 313 312 311 311 310 310 310 310 310 309 308 307 305 303 303 305 309 310 308 303 298 293 290 291 295
303 296 286 279 272 264 258 255 254 255 257 259 260 260 261 260 259 258 257 258 261 265 270 275 280 284 288 291 293 295 297 299 301 302 303 302 301 298 296 294 295 298 302 305 308 311 312 313 313 313 312 312 311 311 310 310 310 309 308 307 306 303 302 302 304 308 313 315 314 309 302 296 295 296
262 255 252 249 246 245 244 246 249 252 253 255 256 256 256 255 253 255 259 264 271 277 282 286 290 292 294 296 297 299 301 303 304 304 303 301 298 295 294 295 298 302 305 308 311 313 314 314 313 312 311 310 309 309 311 312 312 311 310 309 307 304 305 307 310 312 313 313 314 316 316 311 306 300
246 242 241 241 241 242 245 248 250 252 253 253 253 253 253 254 257 263 270 277 282 287 290 293 295 296 298 300 303 304 305 305 304 303 300 298 297 296 297 301 305 308 311 313 314 314 315 315 314 312 312 312 310 311 313 314 315 316 315 313 313 317 322 327 330 331 329 327 330 335 334 326 321 316
241 240 241 243 246 249 251 252 253 254 253 252 251 252 255 259 266 273 279 285 289 292 293 295 298 300 304 306 306 306 305 303 301 299 297 297 299 302 305 309 312 314 315 315 315 316 318 317 316 316 317 316 314 313 315 319 324 325 325 328 340 349 350 354 3 7 7 7 6 3 355 346 338 330
236 238 240 244 246 248 249 250 250 249 248 249 250 255 261 268 274 280 285 288 290 292 294 298 302 305 307 307 306 305 303 301 299 299 299 302 306 310 314 316 317 318 320 319 319 321 322 321 321 323 323 319 315 314 318 328 336 338 340 352 7 7 3 9 17 18 20 22 17 6 359 355 351 349
237 241 243 245 247 247 246 245 245 245 247 250 254 260 267 273 278 281 284 286 290 295 300 305 307 308 308 307 306 304 302 301 301 303 306 311 315 319 320 321 321 323 324 324 324 326 327 326 328 333 331 324 319 319 326 338 346 350 355 4 8 9 11 11 4 1 5 12 4 352 347 348 351 6